Meteo orario Gold Coast

Oggi, 20 Aprile, Martedi

Tempo Temperatura Precipitazioni Vento Pressione Umidità
00:00 +16°C° 0 mm 1 m/s 759 mm Hg 95%
01:00 +15°C° 0 mm 1 m/s 759 mm Hg 96%
02:00 +15°C° 0 mm 2 m/s 758 mm Hg 96%
03:00 +15°C° 0 mm 2 m/s 758 mm Hg 96%
04:00 +15°C° 0 mm 2 m/s 758 mm Hg 96%
05:00 +15°C° 0 mm 2 m/s 759 mm Hg 95%
06:00 +16°C° 0 mm 2 m/s 759 mm Hg 94%
07:00 +16°C° 0 mm 2 m/s 759 mm Hg 92%
08:00 +18°C° 0 mm 3 m/s 759 mm Hg 79%
09:00 +21°C° 0 mm 3 m/s 759 mm Hg 66%
10:00 +24°C° 0 mm 3 m/s 759 mm Hg 54%
11:00 +25°C° 0 mm 4 m/s 758 mm Hg 50%
12:00 +26°C° 0 mm 4 m/s 758 mm Hg 47%
13:00 +27°C° 0 mm 4 m/s 757 mm Hg 43%
14:00 +26°C° 0 mm 4 m/s 757 mm Hg 46%
15:00 +26°C° 0 mm 3 m/s 757 mm Hg 49%
16:00 +26°C° 0 mm 3 m/s 756 mm Hg 52%
17:00 +22°C° 0 mm 3 m/s 757 mm Hg 62%
18:00 +20°C° 0 mm 3 m/s 757 mm Hg 72%
19:00 +18°C° 0 mm 4 m/s 757 mm Hg 82%
20:00 +17°C° 0 mm 4 m/s 757 mm Hg 85%
21:00 +17°C° 0 mm 4 m/s 757 mm Hg 88%
22:00 +17°C° 0 mm 4 m/s 757 mm Hg 89%
23:00 +15°C° 0 mm 4 m/s 757 mm Hg 90%

Domani, 21 Aprile, Mercoledi

Tempo Temperatura Precipitazioni Vento Pressione Umidità
00:00 +16°C° 0 mm 3 m/s 756 mm Hg 91%
01:00 +16°C° 0 mm 3 m/s 756 mm Hg 92%
02:00 +16°C° 0 mm 3 m/s 756 mm Hg 91%
03:00 +14°C° 0 mm 3 m/s 756 mm Hg 90%
04:00 +14°C° 0 mm 3 m/s 756 mm Hg 89%
05:00 +14°C° 0 mm 3 m/s 756 mm Hg 85%
06:00 +16°C° 0 mm 3 m/s 756 mm Hg 81%
07:00 +16°C° 0 mm 3 m/s 756 mm Hg 77%
08:00 +19°C° 0 mm 3 m/s 756 mm Hg 68%
09:00 +21°C° 0 mm 3 m/s 756 mm Hg 58%
10:00 +25°C° 0 mm 4 m/s 756 mm Hg 49%
11:00 +26°C° 0 mm 4 m/s 755 mm Hg 44%
12:00 +28°C° 0 mm 4 m/s 755 mm Hg 40%
13:00 +29°C° 0 mm 4 m/s 754 mm Hg 36%
14:00 +28°C° 0 mm 3 m/s 754 mm Hg 37%
15:00 +28°C° 0 mm 3 m/s 754 mm Hg 37%
16:00 +27°C° 0 mm 2 m/s 754 mm Hg 38%
17:00 +24°C° 0 mm 3 m/s 754 mm Hg 42%
18:00 +21°C° 0 mm 3 m/s 755 mm Hg 47%
19:00 +18°C° 0 mm 3 m/s 756 mm Hg 52%
20:00 +17°C° 0 mm 3 m/s 756 mm Hg 51%
21:00 +16°C° 0 mm 3 m/s 756 mm Hg 51%
22:00 +16°C° 0 mm 3 m/s 757 mm Hg 50%
23:00 +14°C° 0 mm 3 m/s 756 mm Hg 53%

Dopodomani, 22 Aprile, Giovedi

Tempo Temperatura Precipitazioni Vento Pressione Umidità
00:00 +14°C° 0 mm 3 m/s 756 mm Hg 56%
01:00 +13°C° 0 mm 3 m/s 756 mm Hg 59%
02:00 +13°C° 0 mm 3 m/s 756 mm Hg 61%
03:00 +13°C° 0 mm 2 m/s 756 mm Hg 63%
04:00 +13°C° 0 mm 2 m/s 756 mm Hg 65%
05:00 +13°C° 0 mm 2 m/s 756 mm Hg 65%
06:00 +13°C° 0 mm 2 m/s 757 mm Hg 65%
07:00 +14°C° 0 mm 2 m/s 757 mm Hg 66%
08:00 +16°C° 0 mm 1 m/s 757 mm Hg 58%
09:00 +20°C° 0 mm 1 m/s 757 mm Hg 50%
10:00 +23°C° 0 mm 1 m/s 757 mm Hg 42%
11:00 +23°C° 0 mm 2 m/s 756 mm Hg 41%
12:00 +22°C° 0 mm 3 m/s 755 mm Hg 40%
13:00 +22°C° 0 mm 3 m/s 755 mm Hg 38%
14:00 +22°C° 0 mm 3 m/s 755 mm Hg 44%
15:00 +21°C° 0 mm 3 m/s 754 mm Hg 50%
16:00 +20°C° 0 mm 2 m/s 754 mm Hg 56%
17:00 +19°C° 0 mm 2 m/s 755 mm Hg 55%
18:00 +18°C° 0 mm 3 m/s 755 mm Hg 54%
19:00 +17°C° 0 mm 3 m/s 756 mm Hg 54%
20:00 +16°C° 0 mm 3 m/s 756 mm Hg 54%
21:00 +14°C° 0 mm 3 m/s 757 mm Hg 54%
22:00 +13°C° 0 mm 3 m/s 757 mm Hg 54%
23:00 +12°C° 0 mm 3 m/s 757 mm Hg 55%

23 Aprile, Venerdi

Tempo Temperatura Precipitazioni Vento Pressione Umidità
00:00 +12°C° 0 mm 3 m/s 757 mm Hg 56%
01:00 +11°C° 0 mm 3 m/s 757 mm Hg 57%
02:00 +11°C° 0 mm 3 m/s 757 mm Hg 58%
03:00 +10°C° 0 mm 3 m/s 757 mm Hg 59%
04:00 +10°C° 0 mm 3 m/s 757 mm Hg 59%
05:00 +10°C° 0 mm 2 m/s 758 mm Hg 59%
06:00 +10°C° 0 mm 2 m/s 758 mm Hg 59%
07:00 +10°C° 0 mm 2 m/s 759 mm Hg 59%
08:00 +15°C° 0 mm 2 m/s 759 mm Hg 50%
09:00 +19°C° 0 mm 1 m/s 759 mm Hg 42%
10:00 +22°C° 0 mm 1 m/s 759 mm Hg 33%
11:00 +23°C° 0 mm 1 m/s 759 mm Hg 33%
12:00 +24°C° 0 mm 2 m/s 758 mm Hg 33%
13:00 +25°C° 0 mm 2 m/s 758 mm Hg 32%
14:00 +24°C° 0 mm 2 m/s 758 mm Hg 40%
15:00 +23°C° 0 mm 2 m/s 758 mm Hg 48%
16:00 +21°C° 0 mm 3 m/s 758 mm Hg 56%
17:00 +19°C° 0 mm 2 m/s 759 mm Hg 65%
18:00 +17°C° 0 mm 2 m/s 759 mm Hg 74%
19:00 +15°C° 0 mm 2 m/s 760 mm Hg 83%
20:00 +14°C° 0 mm 2 m/s 760 mm Hg 83%
21:00 +14°C° 0 mm 2 m/s 761 mm Hg 83%
22:00 +14°C° 0 mm 2 m/s 761 mm Hg 83%
23:00 +13°C° 0 mm 2 m/s 761 mm Hg 84%

24 Aprile, Sabato

Tempo Temperatura Precipitazioni Vento Pressione Umidità
00:00 +13°C° 0 mm 2 m/s 761 mm Hg 85%
01:00 +13°C° 0 mm 2 m/s 761 mm Hg 85%
02:00 +13°C° 0 mm 2 m/s 761 mm Hg 85%
03:00 +12°C° 0 mm 2 m/s 761 mm Hg 85%
04:00 +12°C° 0 mm 2 m/s 761 mm Hg 85%
05:00 +13°C° 0 mm 2 m/s 761 mm Hg 83%
06:00 +13°C° 0 mm 2 m/s 762 mm Hg 81%
07:00 +14°C° 0 mm 2 m/s 762 mm Hg 80%
08:00 +16°C° 0 mm 2 m/s 762 mm Hg 69%
09:00 +19°C° 0 mm 2 m/s 762 mm Hg 57%
10:00 +23°C° 0 mm 1 m/s 763 mm Hg 46%
11:00 +24°C° 0 mm 2 m/s 762 mm Hg 45%
12:00 +24°C° 0 mm 2 m/s 761 mm Hg 44%
13:00 +25°C° 0 mm 2 m/s 761 mm Hg 43%
14:00 +24°C° 0 mm 2 m/s 761 mm Hg 48%
15:00 +22°C° 0 mm 3 m/s 761 mm Hg 53%
16:00 +21°C° 0 mm 3 m/s 761 mm Hg 59%
17:00 +19°C° 0 mm 3 m/s 761 mm Hg 68%
18:00 +17°C° 0 mm 3 m/s 762 mm Hg 77%
19:00 +16°C° 0 mm 3 m/s 762 mm Hg 86%
20:00 +14°C° 0 mm 3 m/s 762 mm Hg 87%
21:00 +14°C° 0 mm 3 m/s 763 mm Hg 88%
22:00 +14°C° 0 mm 3 m/s 763 mm Hg 89%
23:00 +13°C° 0 mm 3 m/s 763 mm Hg 90%

25 Aprile, Domenica

Tempo Temperatura Precipitazioni Vento Pressione Umidità
00:00 +13°C° 0 mm 3 m/s 763 mm Hg 90%
01:00 +13°C° 0 mm 3 m/s 763 mm Hg 91%
02:00 +13°C° 0 mm 3 m/s 762 mm Hg 91%
03:00 +13°C° 0 mm 3 m/s 762 mm Hg 91%
04:00 +12°C° 0 mm 3 m/s 762 mm Hg 92%
05:00 +13°C° 0 mm 3 m/s 762 mm Hg 90%
06:00 +13°C° 0 mm 3 m/s 763 mm Hg 87%
07:00 +15°C° 0 mm 2 m/s 763 mm Hg 85%
08:00 +17°C° 0 mm 2 m/s 763 mm Hg 75%
09:00 +20°C° 0 mm 2 m/s 763 mm Hg 65%
10:00 +23°C° 0 mm 2 m/s 763 mm Hg 55%
11:00 +24°C° 0 mm 3 m/s 762 mm Hg 52%
12:00 +25°C° 0 mm 3 m/s 762 mm Hg 49%
13:00 +26°C° 0 mm 4 m/s 761 mm Hg 46%
14:00 +25°C° 0 mm 4 m/s 761 mm Hg 53%
15:00 +23°C° 0 mm 4 m/s 761 mm Hg 59%
16:00 +22°C° 0 mm 4 m/s 761 mm Hg 65%
17:00 +20°C° 0 mm 4 m/s 761 mm Hg 74%
18:00 +18°C° 0 mm 4 m/s 762 mm Hg 83%
19:00 +17°C° 0 mm 3 m/s 762 mm Hg 92%
20:00 +16°C° 0 mm 3 m/s 762 mm Hg 92%
21:00 +16°C° 0 mm 3 m/s 763 mm Hg 93%
22:00 +16°C° 0 mm 3 m/s 763 mm Hg 93%
23:00 +14°C° 0 mm 3 m/s 763 mm Hg 93%
Mostrare altro

Abbiamo bisogno del tuo consenso

Meteoprog e i nostri fornitori di servizi possono memorizzare e accedere a dati personali come cookie, identificatori di dispositivi o altre tecnologie simili sul tuo dispositivo e possono elaborare tali dati per personalizzare i contenuti e gli annunci, nonché fornire funzionalità dei social media e analizzarne il traffico.

  • Archiviare e/o accedere alle informazioni sul tuo dispositivo

    Cookie, identificatori di dispositivi o altre informazioni possono essere memorizzati o resi accessibili sul tuo dispositivo per le finalità sopra indicate.

  • Annunci e contenuti personalizzati, misurazione di annunci e contenuti, approfondimenti sul pubblico e sviluppo di prodotti

    Gli annunci e i contenuti possono essere personalizzati in base a un profilo. È possibile aggiungere più dati per personalizzare meglio annunci e contenuti. È possibile misurare il rendimento degli annunci e dei contenuti. È possibile ricavare informazioni sul pubblico che ha visto gli annunci e i contenuti. Tali dati possono essere utilizzati per sviluppare o migliorare l'esperienza, i sistemi e il software dell'utente.

Cliccando su “Accetto”, acconsenti all'uso di cookie, identificatori di dispositivo, web beacon o altre tecnologie simili. Puoi modificare le impostazioni nel browser del tuo dispositivo.

Per determinati scopi, è possibile fare affidamento su interessi legali, piuttosto che sul consenso. Puoi approfondire questo argomento consultando la nostra Informativa sulla privacy e sui cookie.